• In Czech Republic
  • List of Countries
  • For 7 days
  • Water Temperature
  • Satellite Maps
  • Weather Map
  • Weather Widgets
  • user-avatar
    Login

    Hourly Weather Frankfort

    Today, 26 September, Wednesday

    Time Temperature Precipitation Wind Pressure Humidity
    00:00 +22°C° 0.2 mm 4 mps 741 mmHg 95%
    01:00 +22°C° 0 mm 4 mps 741 mmHg 95%
    02:00 +22°C° 0 mm 3 mps 741 mmHg 96%
    03:00 +21°C° 0 mm 3 mps 741 mmHg 96%
    04:00 +21°C° 0 mm 3 mps 741 mmHg 96%
    05:00 +21°C° 0 mm 3 mps 742 mmHg 97%
    06:00 +21°C° 0 mm 3 mps 742 mmHg 97%
    07:00 +21°C° 0.1 mm 3 mps 742 mmHg 96%
    08:00 +21°C° 0.1 mm 3 mps 743 mmHg 95%
    09:00 +21°C° 0.1 mm 3 mps 743 mmHg 93%
    10:00 +21°C° 0 mm 3 mps 744 mmHg 89%
    11:00 +22°C° 0 mm 3 mps 744 mmHg 84%
    12:00 +22°C° 0 mm 3 mps 744 mmHg 80%
    13:00 +22°C° 0 mm 3 mps 744 mmHg 78%
    14:00 +22°C° 0 mm 3 mps 744 mmHg 76%
    15:00 +21°C° 0 mm 3 mps 743 mmHg 74%
    16:00 +20°C° 0 mm 3 mps 744 mmHg 76%
    17:00 +19°C° 0 mm 2 mps 744 mmHg 78%
    18:00 +17°C° 0 mm 2 mps 744 mmHg 80%
    19:00 +16°C° 0 mm 2 mps 744 mmHg 80%
    20:00 +16°C° 0 mm 2 mps 745 mmHg 81%
    21:00 +15°C° 0 mm 2 mps 745 mmHg 82%
    22:00 +14°C° 0 mm 2 mps 745 mmHg 82%
    23:00 +14°C° 0 mm 2 mps 745 mmHg 83%

    Tomorrow, 27 September, Thursday

    Time Temperature Precipitation Wind Pressure Humidity
    00:00 +13°C° 0 mm 2 mps 745 mmHg 83%
    01:00 +13°C° 0 mm 2 mps 745 mmHg 82%
    02:00 +13°C° 0 mm 2 mps 745 mmHg 81%
    03:00 +12°C° 0 mm 3 mps 745 mmHg 81%
    04:00 +12°C° 0 mm 3 mps 744 mmHg 81%
    05:00 +13°C° 0 mm 2 mps 744 mmHg 81%
    06:00 +12°C° 0 mm 2 mps 744 mmHg 82%
    07:00 +13°C° 0 mm 3 mps 744 mmHg 81%
    08:00 +14°C° 0 mm 3 mps 744 mmHg 80%
    09:00 +16°C° 0 mm 3 mps 744 mmHg 79%
    10:00 +17°C° 0 mm 2 mps 744 mmHg 76%
    11:00 +18°C° 0 mm 2 mps 744 mmHg 74%
    12:00 +21°C° 0 mm 1 mps 744 mmHg 72%
    13:00 +21°C° 0 mm 1 mps 743 mmHg 73%
    14:00 +21°C° 0 mm 1 mps 742 mmHg 74%
    15:00 +21°C° 0 mm 1 mps 742 mmHg 75%
    16:00 +20°C° 0 mm 1 mps 742 mmHg 78%
    17:00 +19°C° 0 mm 1 mps 742 mmHg 81%
    18:00 +18°C° 0 mm 1 mps 742 mmHg 84%
    19:00 +18°C° 0 mm 1 mps 742 mmHg 85%
    20:00 +16°C° 0 mm 1 mps 743 mmHg 87%
    21:00 +16°C° 0 mm 1 mps 743 mmHg 89%
    22:00 +16°C° 0 mm 1 mps 743 mmHg 90%
    23:00 +15°C° 0 mm 1 mps 743 mmHg 91%

    Day after tomorrow, 28 September, Friday

    Time Temperature Precipitation Wind Pressure Humidity
    00:00 +15°C° 0 mm 1 mps 743 mmHg 93%
    01:00 +14°C° 0 mm 1 mps 743 mmHg 93%
    02:00 +14°C° 0 mm 1 mps 743 mmHg 94%
    03:00 +14°C° 0 mm 1 mps 743 mmHg 94%
    04:00 +12°C° 0 mm 0 mps 743 mmHg 94%
    05:00 +12°C° 0 mm 0 mps 744 mmHg 94%
    06:00 +12°C° 0 mm 0 mps 744 mmHg 94%
    07:00 +14°C° 0 mm 0 mps 745 mmHg 85%
    08:00 +18°C° 0 mm 1 mps 745 mmHg 77%
    09:00 +20°C° 0 mm 1 mps 746 mmHg 68%
    10:00 +22°C° 0 mm 1 mps 746 mmHg 63%
    11:00 +23°C° 0 mm 1 mps 746 mmHg 58%
    12:00 +24°C° 0 mm 1 mps 745 mmHg 53%
    13:00 +24°C° 0 mm 1 mps 745 mmHg 54%
    14:00 +24°C° 0 mm 1 mps 745 mmHg 55%
    15:00 +24°C° 0 mm 1 mps 744 mmHg 56%
    16:00 +22°C° 0 mm 1 mps 745 mmHg 63%
    17:00 +20°C° 0 mm 1 mps 745 mmHg 69%
    18:00 +18°C° 0 mm 1 mps 745 mmHg 75%
    19:00 +16°C° 0 mm 1 mps 746 mmHg 78%
    20:00 +16°C° 0 mm 1 mps 746 mmHg 81%
    21:00 +15°C° 0 mm 1 mps 747 mmHg 85%
    22:00 +14°C° 0 mm 2 mps 747 mmHg 87%
    23:00 +13°C° 0 mm 2 mps 747 mmHg 88%

    29 September, Saturday

    Time Temperature Precipitation Wind Pressure Humidity
    00:00 +13°C° 0 mm 2 mps 747 mmHg 90%
    01:00 +11°C° 0 mm 3 mps 747 mmHg 87%
    02:00 +10°C° 0 mm 3 mps 748 mmHg 85%
    03:00 +10°C° 0 mm 3 mps 748 mmHg 82%
    04:00 +9°C° 0 mm 3 mps 748 mmHg 81%
    05:00 +9°C° 0 mm 2 mps 749 mmHg 80%
    06:00 +8°C° 0 mm 2 mps 749 mmHg 79%
    07:00 +10°C° 0 mm 2 mps 749 mmHg 75%
    08:00 +12°C° 0 mm 3 mps 750 mmHg 71%
    09:00 +14°C° 0 mm 3 mps 750 mmHg 68%
    10:00 +16°C° 0 mm 2 mps 749 mmHg 65%
    11:00 +18°C° 0 mm 2 mps 749 mmHg 63%
    12:00 +19°C° 0 mm 2 mps 749 mmHg 61%
    13:00 +20°C° 0 mm 2 mps 748 mmHg 61%
    14:00 +20°C° 0 mm 2 mps 748 mmHg 62%
    15:00 +20°C° 0 mm 2 mps 748 mmHg 63%
    16:00 +19°C° 0 mm 2 mps 748 mmHg 68%
    17:00 +17°C° 0 mm 2 mps 748 mmHg 73%
    18:00 +15°C° 0 mm 2 mps 748 mmHg 78%
    19:00 +15°C° 0 mm 2 mps 748 mmHg 79%
    20:00 +14°C° 0 mm 2 mps 748 mmHg 79%
    21:00 +13°C° 0 mm 2 mps 748 mmHg 80%
    22:00 +13°C° 0 mm 2 mps 748 mmHg 79%
    23:00 +13°C° 0 mm 2 mps 747 mmHg 78%

    30 September, Sunday

    Time Temperature Precipitation Wind Pressure Humidity
    00:00 +12°C° 0 mm 2 mps 747 mmHg 78%
    01:00 +12°C° 0 mm 2 mps 747 mmHg 78%
    02:00 +12°C° 0 mm 2 mps 747 mmHg 78%
    03:00 +10°C° 0 mm 2 mps 747 mmHg 78%
    04:00 +10°C° 0 mm 2 mps 747 mmHg 78%
    05:00 +10°C° 0 mm 2 mps 748 mmHg 79%
    06:00 +10°C° 0 mm 2 mps 748 mmHg 79%
    07:00 +13°C° 0 mm 2 mps 748 mmHg 77%
    08:00 +16°C° 0 mm 2 mps 748 mmHg 74%
    09:00 +18°C° 0 mm 3 mps 748 mmHg 71%
    10:00 +20°C° 0 mm 2 mps 748 mmHg 69%
    11:00 +23°C° 0 mm 2 mps 748 mmHg 67%
    12:00 +25°C° 0 mm 2 mps 747 mmHg 65%
    13:00 +26°C° 0 mm 2 mps 747 mmHg 66%
    14:00 +26°C° 0 mm 2 mps 746 mmHg 66%
    15:00 +27°C° 0 mm 2 mps 746 mmHg 67%
    16:00 +25°C° 0 mm 1 mps 746 mmHg 74%
    17:00 +23°C° 0 mm 1 mps 746 mmHg 82%
    18:00 +21°C° 0 mm 1 mps 746 mmHg 89%
    19:00 +21°C° 0 mm 1 mps 746 mmHg 90%
    20:00 +21°C° 0 mm 1 mps 747 mmHg 92%
    21:00 +20°C° 0 mm 1 mps 747 mmHg 93%
    22:00 +20°C° 0 mm 1 mps 747 mmHg 94%
    23:00 +20°C° 0 mm 1 mps 747 mmHg 94%

    1 October, Monday

    Time Temperature Precipitation Wind Pressure Humidity
    00:00 +20°C° 0 mm 1 mps 747 mmHg 95%
    01:00 +19°C° 0 mm 2 mps 747 mmHg 95%
    02:00 +19°C° 0 mm 2 mps 747 mmHg 95%
    03:00 +19°C° 0 mm 2 mps 747 mmHg 95%
    04:00 +19°C° 0 mm 2 mps 748 mmHg 95%
    05:00 +19°C° 0 mm 2 mps 748 mmHg 95%
    06:00 +19°C° 0 mm 2 mps 749 mmHg 95%
    07:00 +20°C° 0 mm 3 mps 749 mmHg 91%
    08:00 +22°C° 0 mm 3 mps 749 mmHg 87%
    09:00 +23°C° 0 mm 4 mps 749 mmHg 82%
    10:00 +26°C° 0.1 mm 3 mps 749 mmHg 79%
    11:00 +27°C° 0.1 mm 3 mps 749 mmHg 75%
    12:00 +28°C° 0.1 mm 3 mps 748 mmHg 72%
    13:00 +28°C° 0.1 mm 3 mps 748 mmHg 72%
    14:00 +28°C° 0.1 mm 3 mps 747 mmHg 72%
    15:00 +28°C° 0.1 mm 3 mps 747 mmHg 71%
    16:00 +27°C° 0 mm 2 mps 747 mmHg 78%
    17:00 +25°C° 0 mm 2 mps 747 mmHg 84%
    18:00 +24°C° 0 mm 1 mps 747 mmHg 90%
    19:00 +23°C° 0 mm 1 mps 747 mmHg 91%
    20:00 +23°C° 0 mm 2 mps 748 mmHg 92%
    21:00 +21°C° 0 mm 2 mps 748 mmHg 93%
    22:00 +21°C° 0 mm 2 mps 748 mmHg 94%
    23:00 +21°C° 0 mm 2 mps 748 mmHg 94%
    Show more